Wind_Speed
34 33 33 33 33 33 32 32 32 32 31 31 30 30 30 29 29 29 29 29 28 28 29 29 30 29 29 28 28 27 27 26 26 26 25 25 24 24 23 23 22 22 21
37 36 35 34 34 34 34 33 33 33 33 33 33 32 32 31 31 31 31 31 31 30 30 31 31 31 31 30 30 30 30 29 29 28 28 27 26 26 26 25 24 24 24
39 38 37 36 36 36 36 35 35 34 34 34 34 33 33 33 33 33 33 33 33 33 32 32 32 32 32 32 32 32 32 32 32 31 31 31 30 29 28 28 27 26 26
40 40 40 39 38 38 38 37 37 37 36 36 35 35 35 35 35 35 35 35 35 34 34 34 34 34 34 34 35 35 34 35 35 34 33 33 33 32 32 31 30 29 28
42 41 41 41 41 40 39 39 39 39 39 38 37 37 37 37 37 37 37 37 37 36 36 35 35 35 35 35 35 35 36 36 37 37 36 36 35 35 34 34 33 32 31
44 44 43 42 43 42 41 41 41 41 41 41 40 40 39 39 39 39 38 37 36 37 37 37 36 36 36 36 36 36 36 37 37 38 38 38 38 37 37 36 36 35 35
46 46 46 44 45 44 43 42 42 42 42 42 42 42 42 41 41 40 39 38 37 37 37 38 38 38 38 38 37 38 37 37 38 38 39 39 39 39 39 39 38 38 38
49 49 49 48 48 47 46 45 44 44 44 44 44 44 44 43 42 42 41 41 40 40 40 40 40 40 40 39 39 39 39 39 38 39 40 40 40 41 41 41 41 40 40
51 50 50 50 50 50 49 48 47 47 47 47 46 46 46 45 44 43 43 43 43 43 43 42 42 42 42 42 42 42 42 42 41 41 41 42 42 42 42 42 42 42 42
52 52 52 52 51 51 50 50 49 48 48 48 48 48 48 47 46 45 45 46 46 46 45 45 45 45 45 45 45 44 44 44 44 44 44 44 44 44 44 43 44 43 43
53 53 54 53 53 52 52 52 52 51 50 50 50 50 49 49 49 49 48 48 49 49 48 48 47 47 47 47 47 46 46 46 46 46 46 46 46 46 46 45 45 45 45
55 55 55 54 54 54 54 54 53 53 53 53 52 52 52 52 52 52 51 51 51 50 51 50 50 49 48 48 48 48 47 47 48 48 48 48 47 47 48 48 48 48 48
55 56 56 56 56 56 57 56 55 55 55 55 54 54 54 55 55 54 54 54 53 53 52 52 51 51 51 50 49 49 49 49 49 49 49 49 49 49 50 51 51 51 51
56 57 58 58 59 58 58 58 57 57 56 56 56 56 56 57 57 56 56 56 55 54 54 53 53 53 53 53 52 52 51 51 51 51 51 51 51 51 52 52 53 53 53
58 59 59 59 60 60 60 59 59 59 59 58 58 57 57 58 58 58 58 58 58 57 56 55 55 55 55 55 55 54 54 54 54 54 54 54 54 54 54 54 54 55 55
60 60 61 61 61 62 62 62 61 60 60 60 59 60 59 59 59 60 60 60 60 60 59 58 57 57 58 57 57 57 57 57 57 56 55 55 55 55 55 55 55 55 56
61 62 62 63 63 63 63 64 63 63 63 62 61 61 61 61 61 61 62 62 62 62 61 60 60 60 60 60 61 61 60 60 59 58 58 58 57 57 57 57 56 56 56
61 62 63 63 63 64 64 65 65 64 65 65 64 64 63 63 63 63 63 64 64 64 64 63 63 63 63 63 63 62 62 62 61 60 60 60 59 58 57 57 57 57 57
61 62 64 64 64 64 64 65 66 66 66 65 65 65 65 65 64 64 65 65 66 66 66 66 65 65 64 64 65 64 64 64 63 62 62 61 60 58 58 58 58 58 58
60 61 62 63 63 64 65 65 66 67 66 66 65 65 65 66 66 66 66 67 67 67 67 67 66 66 65 65 65 65 65 65 64 63 63 63 62 61 60 60 60 60 59
59 61 62 63 63 64 64 64 65 66 66 65 65 65 66 66 67 67 67 67 67 66 66 66 66 66 65 65 65 65 65 64 64 63 63 63 63 62 61 61 61 61 61
58 59 60 61 62 63 64 64 65 66 66 66 66 66 66 66 65 65 65 66 66 66 65 66 66 66 65 64 64 64 64 65 64 63 63 63 63 62 62 62 62 61 61
56 57 58 59 60 60 62 63 64 64 65 65 65 65 64 65 64 65 65 65 64 64 65 65 65 64 64 63 63 63 63 63 62 62 63 62 62 62 62 62 61 61 62
54 55 56 57 58 59 60 61 61 62 63 63 64 63 64 64 64 63 64 65 65 64 64 64 63 63 63 63 63 62 62 62 61 60 61 61 60 60 60 59 59 59 60
52 54 55 55 56 56 57 58 59 60 61 62 62 63 63 63 63 63 64 65 64 64 63 64 63 62 61 61 61 61 61 61 59 59 59 60 59 59 59 59 59 59 59
51 52 53 54 55 55 56 56 57 58 60 60 60 61 61 61 61 62 63 63 64 63 63 63 63 62 61 60 60 60 60 60 59 58 59 60 60 60 60 59 59 58 58
Wind_Direction
246 246 246 246 246 247 248 248 248 248 249 250 251 252 253 254 254 255 256 257 256 256 256 256 255 255 256 257 259 259 259 260 261 262 263 264 266 267 269 270 272 274 274
245 246 246 247 247 247 248 248 248 249 250 251 251 252 254 255 256 256 255 256 257 257 259 259 258 255 255 256 258 259 259 260 260 261 262 263 265 266 267 268 269 272 273
245 245 246 246 247 248 248 249 249 249 250 252 253 254 254 255 256 257 257 257 257 257 258 260 260 258 257 258 259 259 260 260 261 261 262 263 265 266 266 267 268 269 271
245 246 246 247 248 249 250 250 251 251 251 252 253 254 255 256 257 257 258 258 258 258 259 260 260 260 260 260 260 260 260 260 261 261 262 263 264 265 266 266 267 267 268
246 246 247 248 248 249 250 250 252 252 253 253 254 255 256 257 258 258 258 259 259 259 259 259 260 261 261 262 262 262 261 260 261 261 262 263 263 264 265 266 265 266 267
247 248 248 249 250 250 250 251 252 252 253 253 254 255 256 257 258 259 259 258 258 258 258 258 260 260 261 262 263 263 263 263 262 262 263 263 263 264 265 265 265 266 266
247 248 249 250 250 251 251 252 253 254 254 254 254 255 255 256 257 258 258 257 257 257 258 258 260 261 261 262 262 263 263 264 263 263 263 263 263 263 264 265 265 265 266
247 247 248 250 251 252 253 254 254 255 255 255 255 255 256 256 257 257 257 257 257 258 258 259 260 261 261 262 262 263 263 263 264 264 263 263 263 263 263 264 264 264 265
247 247 248 250 251 251 252 253 254 254 255 256 256 257 256 256 256 256 257 257 258 259 260 260 261 261 262 262 263 262 262 263 263 264 264 264 264 264 264 264 264 264 264
247 247 248 249 251 251 252 253 254 254 255 256 257 257 257 257 256 256 257 258 259 260 261 261 262 262 263 264 263 263 263 263 263 263 264 265 265 264 264 264 264 264 265
248 248 249 250 251 251 252 253 253 255 256 257 257 257 257 257 257 257 257 259 260 260 261 261 262 263 264 264 264 264 264 264 264 264 264 265 265 265 264 265 265 265 265
249 249 250 251 252 253 253 253 254 255 255 256 257 258 258 258 258 259 259 259 260 260 261 261 262 262 263 263 263 264 264 264 265 265 266 266 266 265 265 265 265 265 265
250 250 250 252 252 253 254 254 254 255 256 256 257 257 258 258 259 260 260 260 260 260 260 261 262 262 262 263 263 263 264 264 265 265 266 266 266 266 266 266 265 265 265
250 250 251 252 253 253 254 255 255 256 257 257 257 257 258 259 260 260 261 261 260 259 260 261 261 262 262 263 264 264 265 265 265 266 266 266 267 267 266 266 265 265 265
251 251 252 252 253 254 254 255 256 257 258 258 258 258 259 260 260 260 261 261 261 260 260 260 261 262 263 264 264 265 265 266 266 266 266 266 266 266 266 266 266 266 265
252 252 253 253 254 254 255 256 257 257 258 258 258 259 259 259 260 261 261 262 261 261 261 260 261 262 263 263 264 265 266 266 266 267 267 267 266 266 266 266 266 266 265
253 253 253 254 254 255 256 256 257 257 258 258 259 259 259 260 260 260 261 262 262 262 262 261 261 262 263 264 265 265 266 266 266 266 266 267 267 266 266 266 266 266 265
254 253 253 254 254 256 257 257 257 258 258 259 259 259 259 260 260 260 261 261 262 263 263 262 262 262 263 264 265 266 266 266 266 266 266 267 267 266 266 266 266 265 265
255 254 254 254 254 255 256 257 258 258 258 259 259 260 260 260 260 261 261 261 262 263 263 263 263 263 264 264 265 265 265 266 266 266 266 266 266 266 265 265 265 265 265
256 256 254 254 254 255 256 257 258 258 259 259 259 260 261 261 261 261 262 262 262 263 263 263 263 264 264 264 264 265 265 265 265 265 264 265 265 265 266 266 266 266 266
256 256 255 255 254 254 256 257 257 258 258 259 259 260 260 261 261 261 262 262 262 262 263 263 263 263 264 264 264 264 264 264 265 264 264 264 264 264 265 266 266 266 267
258 257 256 256 255 255 256 256 256 257 258 259 260 261 261 261 261 261 262 262 261 262 262 263 263 264 264 264 264 264 264 264 264 264 264 264 264 263 264 264 265 266 267
259 259 258 257 256 256 257 257 256 257 258 259 259 260 261 261 261 261 261 261 262 262 263 263 264 264 264 263 264 264 264 264 264 264 263 263 263 263 263 264 264 264 265
260 260 259 258 258 258 258 258 258 258 259 259 259 260 261 261 261 261 261 261 261 262 263 263 263 263 262 262 263 263 263 263 264 263 263 263 262 262 262 263 263 264 264
262 262 260 259 258 258 258 259 259 260 260 260 260 260 260 260 260 260 260 260 261 262 262 262 261 262 262 262 263 263 263 263 262 262 262 262 262 262 262 262 263 263 264
263 263 261 260 259 258 258 259 259 260 261 261 261 261 260 260 260 260 261 261 261 261 261 261 261 261 261 261 262 263 263 262 262 262 261 262 262 262 262 262 263 263 264
Height
5791 5793 5794 5796 5798 5799 5801 5803 5804 5806 5807 5808 5810 5811 5812 5813 5814 5815 5816 5817 5818 5818 5819 5820 5820 5821 5822 5823 5824 5825 5826 5826 5827 5827 5828 5828 5829 5829 5829 5829 5829 5829 5829
5783 5785 5787 5789 5790 5792 5794 5796 5797 5799 5800 5801 5803 5804 5805 5807 5808 5809 5810 5810 5811 5812 5812 5813 5814 5815 5816 5817 5817 5818 5819 5820 5821 5822 5822 5822 5823 5823 5824 5824 5824 5824 5824
5774 5777 5779 5781 5783 5784 5786 5788 5790 5791 5793 5794 5796 5797 5798 5799 5800 5801 5802 5803 5804 5805 5806 5806 5807 5807 5808 5809 5810 5811 5812 5813 5814 5815 5815 5816 5816 5817 5817 5818 5818 5818 5818
5766 5768 5770 5772 5774 5776 5778 5780 5782 5783 5785 5786 5788 5789 5790 5791 5792 5793 5794 5795 5796 5797 5798 5799 5799 5800 5801 5802 5802 5803 5804 5805 5806 5807 5808 5808 5809 5810 5810 5811 5811 5812 5812
5756 5759 5761 5763 5765 5767 5769 5771 5773 5774 5776 5778 5779 5780 5782 5783 5784 5785 5786 5787 5788 5789 5790 5791 5791 5792 5793 5794 5794 5795 5796 5797 5798 5799 5799 5800 5801 5802 5803 5803 5804 5804 5805
5746 5749 5751 5753 5755 5757 5759 5761 5763 5765 5767 5768 5770 5771 5772 5774 5774 5775 5777 5778 5779 5780 5781 5782 5783 5784 5785 5785 5786 5787 5787 5788 5789 5790 5791 5792 5793 5793 5794 5795 5796 5797 5797
5736 5738 5741 5743 5745 5747 5749 5751 5753 5755 5757 5758 5760 5761 5763 5764 5765 5766 5767 5768 5769 5771 5772 5773 5774 5775 5776 5776 5777 5778 5779 5779 5780 5781 5782 5782 5783 5784 5785 5786 5787 5788 5789
5724 5727 5730 5732 5734 5736 5739 5740 5742 5744 5746 5748 5749 5751 5752 5754 5755 5756 5757 5759 5760 5761 5762 5763 5765 5765 5766 5767 5768 5769 5769 5770 5771 5771 5772 5773 5774 5775 5776 5776 5777 5778 5779
5712 5715 5718 5720 5722 5725 5727 5729 5731 5733 5735 5736 5738 5740 5742 5743 5745 5746 5747 5749 5750 5751 5752 5753 5754 5755 5756 5757 5758 5759 5759 5760 5761 5761 5762 5763 5764 5764 5765 5766 5767 5768 5769
5700 5702 5705 5708 5710 5712 5714 5717 5719 5721 5722 5724 5726 5728 5730 5732 5734 5736 5737 5738 5739 5740 5741 5742 5743 5744 5745 5746 5747 5748 5748 5749 5750 5751 5751 5752 5753 5753 5754 5755 5756 5757 5758
5686 5689 5692 5695 5697 5699 5702 5704 5706 5708 5710 5712 5714 5715 5717 5719 5721 5723 5725 5727 5727 5728 5729 5730 5731 5732 5733 5734 5735 5736 5737 5737 5738 5739 5740 5741 5741 5742 5743 5744 5745 5745 5746
5673 5676 5678 5681 5683 5686 5688 5690 5693 5695 5697 5698 5700 5702 5704 5706 5708 5710 5712 5714 5715 5716 5717 5718 5719 5720 5721 5722 5722 5723 5724 5725 5726 5727 5728 5728 5729 5730 5731 5731 5732 5733 5734
5658 5661 5664 5667 5669 5671 5674 5676 5678 5681 5682 5684 5686 5688 5690 5692 5694 5696 5698 5700 5701 5703 5704 5705 5705 5706 5707 5708 5710 5711 5712 5713 5713 5714 5715 5716 5716 5717 5718 5719 5719 5720 5722
5644 5646 5649 5652 5654 5657 5659 5661 5664 5666 5668 5670 5672 5674 5676 5677 5679 5681 5683 5685 5687 5689 5691 5692 5692 5693 5694 5695 5696 5697 5698 5699 5700 5701 5701 5702 5703 5703 5704 5705 5706 5707 5708
5628 5631 5634 5636 5639 5641 5644 5646 5649 5651 5653 5655 5657 5659 5661 5662 5664 5666 5667 5669 5671 5674 5677 5678 5679 5679 5680 5681 5682 5683 5684 5685 5686 5686 5687 5688 5688 5689 5690 5691 5691 5692 5693
5612 5615 5617 5620 5623 5625 5628 5630 5633 5635 5637 5639 5641 5644 5645 5647 5648 5650 5651 5653 5655 5657 5661 5664 5664 5664 5665 5666 5667 5668 5669 5670 5671 5671 5672 5673 5673 5674 5675 5676 5676 5677 5678
5595 5598 5601 5603 5606 5609 5611 5613 5616 5618 5621 5623 5625 5627 5629 5630 5632 5634 5635 5637 5638 5640 5643 5647 5648 5648 5649 5650 5651 5652 5653 5654 5655 5656 5656 5657 5658 5658 5659 5660 5661 5662 5662
5578 5580 5583 5586 5589 5591 5593 5596 5599 5601 5604 5606 5608 5610 5612 5613 5615 5617 5618 5620 5621 5623 5625 5629 5631 5632 5632 5633 5634 5635 5636 5637 5638 5639 5639 5640 5641 5642 5643 5644 5645 5645 5646
5561 5563 5565 5568 5571 5574 5576 5578 5580 5583 5585 5588 5590 5592 5594 5596 5598 5599 5601 5602 5604 5605 5607 5610 5613 5614 5615 5615 5616 5617 5618 5619 5620 5621 5622 5623 5624 5625 5626 5627 5628 5629 5630
5543 5545 5547 5550 5552 5555 5557 5559 5562 5564 5567 5570 5572 5574 5576 5578 5580 5581 5583 5584 5585 5587 5588 5590 5593 5595 5596 5597 5597 5598 5600 5601 5602 5603 5604 5605 5606 5607 5609 5610 5611 5612 5613
5525 5527 5529 5531 5534 5536 5539 5541 5543 5545 5548 5551 5553 5555 5557 5559 5561 5562 5564 5565 5566 5568 5570 5572 5574 5576 5578 5578 5579 5580 5581 5582 5584 5584 5585 5587 5589 5590 5591 5592 5593 5594 5595
5508 5509 5511 5513 5515 5518 5520 5522 5524 5527 5529 5532 5534 5536 5538 5540 5542 5543 5545 5546 5548 5549 5552 5553 5556 5557 5559 5560 5560 5561 5562 5564 5567 5568 5567 5569 5570 5572 5573 5574 5576 5577 5578
5491 5492 5493 5495 5497 5500 5502 5503 5505 5508 5510 5513 5515 5518 5519 5521 5523 5524 5526 5527 5529 5530 5533 5534 5537 5539 5540 5542 5542 5543 5543 5544 5547 5548 5548 5551 5552 5554 5555 5556 5558 5559 5559
5474 5475 5476 5478 5480 5482 5484 5485 5487 5489 5492 5494 5497 5499 5501 5503 5504 5505 5507 5509 5511 5512 5514 5516 5518 5520 5520 5521 5522 5524 5525 5526 5529 5530 5530 5533 5535 5536 5537 5539 5540 5541 5542
5458 5458 5459 5461 5463 5465 5467 5468 5469 5471 5474 5477 5479 5480 5482 5484 5486 5487 5488 5491 5493 5494 5495 5496 5499 5500 5501 5503 5503 5505 5507 5509 5512 5514 5513 5515 5518 5519 5521 5522 5523 5524 5525
5442 5442 5443 5444 5446 5449 5450 5451 5452 5454 5457 5460 5461 5462 5464 5466 5467 5468 5469 5471 5474 5476 5477 5478 5480 5482 5483 5485 5486 5487 5489 5491 5493 5496 5497 5498 5500 5501 5504 5506 5507 5508 5509